Galloway, OH

10:31 PM EST on February 19, 2017 (GMT -0500)
Bolton

Weather History for KTZR - December, 2012

Change the Weather History Date:

Monday, December 24, 2012

  Actual Average Record
Temperature  
Mean Temperature 30 °F -  
Max Temperature 34 °F 35 °F 57 °F (2014)
Min Temperature 25 °F 23 °F 1 °F (2004)
Degree Days  
Heating Degree Days 36    
Moisture  
Dew Point 28 °F    
Average Humidity 90    
Maximum Humidity 100    
Minimum Humidity 80    
Precipitation  
Precipitation 0.00 in - - ()
Sea Level Pressure  
Sea Level Pressure 29.90 in    
Wind  
Wind Speed 4 mph (NE)    
Max Wind Speed 12 mph    
Max Gust Speed 18 mph    
Visibility 7 miles    
Events Fog , Rain    
Averages and records for this station are not official NWS values.
T = Trace of Precipitation, MM = Missing Value Source: NWS Daily Summary

Daily Weather History Graph

Daily Weather History Graph

Search for Another Location

Airport or City:

Trip Planner

Search our weather history database for the weather conditions in past years. The results will help you decide how hot, cold, wet, or windy it might be!

Date:

Astronomy

Dec. 24, 2012 Rise Set
Actual Time 7:52 AM EST 5:12 PM EST
Civil Twilight 7:21 AM EST 5:43 PM EST
Nautical Twilight 6:47 AM EST 6:17 PM EST
Astronomical Twilight 6:14 AM EST 6:50 PM EST
Moon 2:39 PM EST (12/24) 4:29 AM EST (12/24)
Length of Visible Light 10h 21m
Length of Day
9h 20m
Waxing Gibbous, 88% of the Moon is Illuminated
Dec 24
Waxing Gibbous
Dec 28
Full
Jan 4
Last Quarter
Jan 11
New
Jan 18
First Quarter

Hourly Weather History & Observations

Time (EST) Temp. Windchill Dew Point Humidity Pressure Visibility Wind Dir Wind Speed Gust Speed Precip Events Conditions
12:15 AM 28.9 °F - 23.9 °F 81% 29.96 in 10.0 mi Calm Calm - N/A   Clear
12:35 AM 27.5 °F 23.6 °F 23.2 °F 84% 29.96 in 10.0 mi NE 3.5 mph - N/A   Clear
12:55 AM 27.7 °F 23.8 °F 23.5 °F 84% 29.96 in 10.0 mi NE 3.5 mph - N/A   Clear
1:15 AM 28.0 °F - 23.9 °F 84% 29.96 in 10.0 mi Calm Calm - N/A   Clear
1:35 AM 27.0 °F 23.0 °F 23.4 °F 86% 29.96 in 10.0 mi NE 3.5 mph - N/A   Clear
1:55 AM 26.8 °F - 23.0 °F 86% 29.96 in 10.0 mi Calm Calm - N/A   Clear
2:15 AM 25.7 °F - 23.0 °F 89% 29.97 in 10.0 mi North - - N/A   Clear
2:35 AM 26.1 °F - 23.4 °F 90% 29.97 in 10.0 mi Calm Calm - N/A   Clear
2:55 AM 27.3 °F 23.4 °F 23.5 °F 86% 29.96 in 10.0 mi ENE 3.5 mph - N/A   Clear
3:15 AM 27.3 °F 23.4 °F 23.5 °F 86% 29.96 in 10.0 mi NE 3.5 mph - N/A   Clear
3:35 AM 28.0 °F 24.2 °F 23.9 °F 84% 29.96 in 10.0 mi ENE 3.5 mph - N/A   Clear
3:55 AM 28.4 °F 23.3 °F 23.9 °F 83% 29.94 in 10.0 mi ENE 4.6 mph - N/A   Clear
4:15 AM 28.2 °F 22.0 °F 23.9 °F 84% 29.92 in 10.0 mi ENE 5.8 mph - N/A   Clear
4:35 AM 28.2 °F 22.0 °F 23.9 °F 84% 29.91 in 10.0 mi East 5.8 mph - N/A   Clear
4:55 AM 28.4 °F 20.4 °F 23.9 °F 83% 29.89 in 10.0 mi ENE 8.1 mph - N/A   Clear
5:15 AM 28.4 °F 22.2 °F 23.9 °F 83% 29.89 in 10.0 mi ENE 5.8 mph - N/A   Clear
5:35 AM 28.8 °F 23.7 °F 24.1 °F 83% 29.88 in 10.0 mi ENE 4.6 mph - N/A   Clear
5:55 AM 28.9 °F 22.8 °F 24.4 °F 83% 29.89 in 10.0 mi ESE 5.8 mph - N/A   Clear
6:15 AM 28.9 °F 23.9 °F 24.6 °F 84% 29.89 in 10.0 mi East 4.6 mph - N/A   Clear
6:35 AM 28.9 °F 22.8 °F 24.6 °F 84% 29.89 in 10.0 mi East 5.8 mph - N/A   Clear
6:55 AM 28.6 °F 22.4 °F 24.4 °F 84% 29.89 in 10.0 mi East 5.8 mph - N/A   Clear
7:15 AM 28.2 °F 23.1 °F 24.4 °F 86% 29.89 in 10.0 mi East 4.6 mph - N/A   Clear
7:20 AM 28.4 °F 23.3 °F 24.8 °F 86% 29.89 in 10.0 mi East 4.6 mph - N/A   Clear
7:50 AM 28.4 °F 22.2 °F 24.8 °F 86% 29.87 in 10.0 mi ENE 5.8 mph - N/A   Clear
8:50 AM 28.4 °F 22.2 °F 24.8 °F 86% 29.86 in 10.0 mi East 5.8 mph - N/A   Overcast
9:50 AM 30.2 °F 24.3 °F 26.6 °F 86% 29.84 in 10.0 mi East 5.8 mph - N/A   Overcast
10:50 AM 32.0 °F 26.4 °F 26.6 °F 80% 29.84 in 10.0 mi East 5.8 mph - N/A   Overcast
11:50 AM 32.0 °F 28.7 °F 28.4 °F 87% 29.80 in 7.0 mi East 3.5 mph - N/A Rain Light Rain
12:50 PM 32.0 °F 28.7 °F 30.2 °F 93% 29.78 in 3.0 mi North 3.5 mph - N/A Rain Light Rain
1:58 PM 32.0 °F - 32.0 °F 100% 29.76 in 2.5 mi Calm Calm - N/A Rain Light Rain
2:55 PM 33.8 °F - 33.8 °F 100% 29.76 in 3.0 mi Calm Calm - N/A Rain Light Rain
3:58 PM 33.8 °F - 33.8 °F 100% 29.78 in 1.0 mi Calm Calm - N/A   Overcast
6:50 PM 33.8 °F - 33.8 °F 100% 29.83 in 0.5 mi Calm Calm - N/A Fog Fog
8:15 PM 32.9 °F 28.5 °F 32.9 °F 100% 29.87 in 0.5 mi West 4.6 mph - N/A Fog Fog
8:35 PM 33.1 °F 30.0 °F 33.1 °F 100% 29.87 in 0.8 mi West 3.5 mph - N/A   Overcast
8:55 PM 33.6 °F 28.4 °F 33.6 °F 100% 29.88 in 1.2 mi West 5.8 mph - N/A   Overcast
9:15 PM 34.2 °F 25.7 °F 34.2 °F 100% 29.89 in 2.0 mi West 11.5 mph 16.1 mph N/A   Overcast
9:35 PM 33.8 °F 25.3 °F 33.8 °F 100% 29.89 in 2.0 mi West 11.5 mph 18.4 mph N/A   Overcast
9:55 PM 33.3 °F 25.7 °F 33.3 °F 100% 29.91 in 2.5 mi West 9.2 mph - N/A   Overcast
10:15 PM 32.9 °F 25.3 °F 32.9 °F 100% 29.92 in 3.0 mi West 9.2 mph - N/A   Overcast
10:35 PM 32.9 °F 25.9 °F 32.9 °F 100% 29.93 in 2.5 mi West 8.1 mph - N/A   Overcast
10:55 PM 32.9 °F 25.9 °F 32.4 °F 98% 29.95 in 3.0 mi West 8.1 mph - N/A   Overcast
11:15 PM 32.5 °F 27.1 °F 32.0 °F 98% 29.96 in 4.0 mi West 5.8 mph - N/A   Overcast
11:35 PM 32.4 °F 24.6 °F 31.6 °F 97% 29.96 in 7.0 mi West 9.2 mph - N/A   Overcast
11:55 PM 32.2 °F 25.8 °F 31.1 °F 96% 29.97 in 7.0 mi West 6.9 mph - N/A   Overcast